This is the latest recevied weather packets stored in our database for station/object N7JP. If no packets are shown the sender has not sent any weather packets the latest 10 day(s).
| Time | Temp. | Humidity | Pressure | Rain* | Wind** | Luminosity | Snow |
|---|---|---|---|---|---|---|---|
| 1777975180 | 11.11° C | 91% | 1007.8 hPa | 0 mm | - | - | - |
| 1777974282 | 11.67° C | 90% | 1007.6 hPa | 0 mm | - | - | - |
| 1777973358 | 11.67° C | 90% | 1007.6 hPa | 0 mm | - | - | - |
| 1777972460 | 11.67° C | 90% | 1007.4 hPa | 0 mm | - | - | - |
| 1777971558 | 11.67° C | 90% | 1007.3 hPa | 0 mm | - | - | - |
| 1777970637 | 11.67° C | 90% | 1007.3 hPa | 0 mm | - | - | - |
| 1777969728 | 12.22° C | 90% | 1007 hPa | 0 mm | - | - | - |
| 1777968811 | 12.22° C | 89% | 1007 hPa | 0 mm | - | - | - |
| 1777967903 | 12.22° C | 89% | 1007 hPa | 0 mm | - | - | - |
| 1777967000 | 12.22° C | 89% | 1006.9 hPa | 0 mm | - | - | - |
| 1777966100 | 12.22° C | 88% | 1006.6 hPa | 0 mm | - | - | - |
| 1777965183 | 12.22° C | 89% | 1006.5 hPa | 0 mm | - | - | - |
| 1777964265 | 11.67° C | 89% | 1006.3 hPa | 0 mm | - | - | - |
| 1777963338 | 11.67° C | 89% | 1006.2 hPa | 0 mm | - | - | - |
| 1777962416 | 11.67° C | 88% | 1006.4 hPa | 0 mm | - | - | - |
| 1777961514 | 11.67° C | 87% | 1006.1 hPa | 0 mm | - | - | - |
| 1777960614 | 11.67° C | 87% | 1005.8 hPa | 0 mm | - | - | - |
| 1777959710 | 12.22° C | 86% | 1005.6 hPa | 0 mm | - | - | - |
| 1777958782 | 12.78° C | 85% | 1005.5 hPa | 0 mm | - | - | - |
| 1777957878 | 13.33° C | 82% | 1005.5 hPa | 0 mm | - | - | - |
| 1777956949 | 13.33° C | 81% | 1005.3 hPa | 0 mm | - | - | - |
| 1777956045 | 13.89° C | 79% | 1005.2 hPa | 0 mm | - | - | - |
| 1777955145 | 14.44° C | 77% | 1005 hPa | 0 mm | - | - | - |
| 1777954245 | 15° C | 75% | 1004.7 hPa | 0 mm | - | - | - |
| 1777953325 | 15.56° C | 73% | 1004.6 hPa | 0 mm | - | - | - |
* Rain latest hour (hover to see other rain measurements)
** Current wind speed in m/s (hover to see current wind gust speed)